Retour au catalogue

IUS R/B(1)

ActifGTO
NORAD 28160·ROCKET BODY·🇺🇸 United States

Lancé Feb 14, 2004 depuis Cape Canaveral Space Force Station

Loading…

TLE

PériméSource: Space-Track

Époque: Sep 13, 2026, 14:59 UTC

1 28160U 04004C   26256.62430832  .00000508  00000-0  75647-3 0  9999
2 28160  28.4394  77.5493 7131032 265.8175  17.4552  2.42033922 64107

Suivez IUS R/B(1) en temps réel avec AllMySat

Download on the App Store